TimeCST,TemperatureF,Dew PointF,Humidity,Sea Level PressureIn,VisibilityMPH,Wind Direction,Wind SpeedMPH,Gust SpeedMPH,PrecipitationIn,Events,Conditions,WindDirDegrees,DateUTC
12:15 AM,40.1,36.0,85,30.33,7.0,NNE,4.6,-,N/A,,Clear,30,2012-12-31 06:15:00
12:35 AM,39.6,36.5,89,30.32,7.0,NE,4.6,-,N/A,,Clear,40,2012-12-31 06:35:00
12:55 AM,40.1,36.5,87,30.31,7.0,NE,3.5,-,N/A,,Clear,50,2012-12-31 06:55:00
1:15 AM,40.1,36.1,86,30.31,7.0,NE,3.5,-,N/A,,Clear,40,2012-12-31 07:15:00
1:35 AM,40.1,35.8,85,30.30,7.0,NE,3.5,-,N/A,,Scattered Clouds,40,2012-12-31 07:35:00
1:55 AM,39.7,36.1,87,30.29,7.0,NE,4.6,-,N/A,,Clear,40,2012-12-31 07:55:00
2:15 AM,40.1,36.7,88,30.30,7.0,North,4.6,-,N/A,,Clear,10,2012-12-31 08:15:00
2:35 AM,40.1,37.4,90,30.30,7.0,North,5.8,-,N/A,,Scattered Clouds,10,2012-12-31 08:35:00
3:15 AM,42.3,37.9,85,30.30,7.0,NNE,6.9,-,N/A,,Overcast,20,2012-12-31 09:15:00
3:35 AM,42.4,38.3,85,30.29,7.0,NE,8.1,-,N/A,,Overcast,40,2012-12-31 09:35:00
4:15 AM,43.9,39.6,85,30.28,7.0,NE,6.9,-,N/A,,Overcast,40,2012-12-31 10:15:00
4:35 AM,44.2,39.2,82,30.28,7.0,NE,9.2,-,N/A,,Overcast,40,2012-12-31 10:35:00
4:55 AM,44.6,38.8,80,30.28,10.0,NE,6.9,-,N/A,,Overcast,40,2012-12-31 10:55:00
5:50 AM,44.6,39.2,81,30.27,5.0,NNE,9.2,-,N/A,,Overcast,30,2012-12-31 11:50:00
6:55 AM,46.4,41.0,81,30.28,5.0,NNE,9.2,-,N/A,,Overcast,30,2012-12-31 12:55:00
7:50 AM,46.4,41.0,81,30.29,6.0,NNE,6.9,-,N/A,,Overcast,20,2012-12-31 13:50:00
8:50 AM,48.2,42.8,82,30.29,6.0,NE,6.9,-,N/A,,Overcast,50,2012-12-31 14:50:00
9:50 AM,51.8,44.6,76,30.29,6.0,NE,6.9,-,N/A,,Overcast,50,2012-12-31 15:50:00
10:50 AM,53.6,42.8,67,30.26,6.0,ENE,11.5,-,N/A,,Overcast,60,2012-12-31 16:50:00
11:50 AM,55.4,48.2,77,30.23,6.0,ENE,8.1,-,N/A,,Overcast,60,2012-12-31 17:50:00
12:50 PM,59.0,51.8,77,30.18,7.0,ENE,11.5,-,N/A,,Mostly Cloudy,70,2012-12-31 18:50:00
1:50 PM,62.6,53.6,72,30.13,7.0,ESE,11.5,-,N/A,,Scattered Clouds,110,2012-12-31 19:50:00
2:50 PM,62.6,55.4,77,30.12,7.0,ESE,11.5,-,N/A,,Scattered Clouds,110,2012-12-31 20:50:00
3:50 PM,62.6,55.4,77,30.14,7.0,ESE,9.2,-,N/A,,Mostly Cloudy,110,2012-12-31 21:50:00
4:50 PM,60.8,55.4,82,30.14,7.0,East,6.9,-,N/A,,Overcast,90,2012-12-31 22:50:00
5:50 PM,59.0,55.4,88,30.14,7.0,East,6.9,-,N/A,,Overcast,80,2012-12-31 23:50:00
6:15 PM,58.3,55.4,90,30.13,10.0,East,6.9,-,N/A,,Overcast,90,2013-01-01 00:15:00
6:35 PM,58.5,55.6,90,30.12,10.0,East,10.4,-,N/A,,Overcast,100,2013-01-01 00:35:00
6:50 PM,64.4,64.4,100,30.20,7.0,SSE,11.5,-,N/A,,Scattered Clouds,150,2013-01-01 00:50:00
6:55 PM,58.5,55.8,91,30.12,10.0,East,8.1,-,N/A,,Overcast,100,2013-01-01 00:55:00
7:15 PM,57.7,55.8,93,30.11,7.0,East,6.9,-,N/A,,Mostly Cloudy,90,2013-01-01 01:15:00
7:35 PM,57.2,55.8,95,30.11,7.0,East,6.9,-,N/A,,Scattered Clouds,100,2013-01-01 01:35:00
7:55 PM,57.6,56.3,96,30.11,7.0,ESE,8.1,-,N/A,,Scattered Clouds,110,2013-01-01 01:55:00
8:15 PM,57.2,56.5,97,30.10,7.0,East,8.1,-,N/A,,Scattered Clouds,100,2013-01-01 02:15:00
8:35 PM,57.4,56.8,98,30.10,7.0,ESE,9.2,-,N/A,,Clear,110,2013-01-01 02:35:00
8:55 PM,57.7,57.4,99,30.09,7.0,ESE,9.2,-,N/A,,Clear,110,2013-01-01 02:55:00
9:15 PM,58.3,58.1,99,30.09,7.0,ESE,9.2,-,N/A,,Clear,110,2013-01-01 03:15:00
9:35 PM,59.2,58.8,99,30.08,7.0,ESE,8.1,-,N/A,,Clear,120,2013-01-01 03:35:00
9:55 PM,61.2,60.6,98,30.08,7.0,SE,12.7,-,N/A,,Clear,130,2013-01-01 03:55:00
10:15 PM,61.9,60.8,96,30.07,7.0,SE,13.8,-,N/A,,Clear,140,2013-01-01 04:15:00
10:35 PM,61.3,60.8,98,30.07,7.0,SE,15.0,-,N/A,,Clear,130,2013-01-01 04:35:00
10:55 PM,61.0,60.6,99,30.07,10.0,SE,13.8,-,N/A,,Clear,130,2013-01-01 04:55:00
11:15 PM,60.3,60.1,99,30.06,7.0,SE,10.4,-,N/A,,Clear,130,2013-01-01 05:15:00
11:35 PM,60.8,60.3,98,30.06,10.0,SE,11.5,-,N/A,,Clear,130,2013-01-01 05:35:00
11:55 PM,61.2,60.3,97,30.05,7.0,SE,13.8,18.4,N/A,,Clear,140,2013-01-01 05:55:00